Regional Weather Roundup
Issued by NWS

Home | Current Version | Previous Version | Graphics & Text | Print | Product List | Glossary On
Versions: 1 2 3 4 5 6 7 8 9 10 11 12 13 14 15 16 17 18 19 20 21 22 23 24 25 26 27 28 29 30 31 32 33 34 35 36 37 38 39 40 41 42 43 44 45 46 47 48 49 50
000
ASUS45 KBOU 300007
RWRCO

WEATHER ROUNDUP FOR COLORADO
NATIONAL WEATHER SERVICE DENVER/BOULDER CO
600 PM MDT FRI AUG 29 2014

NOTE: "FAIR" INDICATES FEW OR NO CLOUDS BELOW 12000 FEET WITH NO
SIGNIFICANT WEATHER AND/OR OBSTRUCTIONS TO VISIBILITY.

COZ001>005-013-030-031-300100-
...NORTHWEST COLORADO...

CITY           SKY/WX    TMP DP  RH WIND       PRES   REMARKS
CRAIG          PTSUNNY   72  48  42 W7        30.14S
HAYDEN         PTSUNNY   70  43  37 W10       30.16F
MEEKER         MOSUNNY   76  39  26 W7        30.16S
MOUNT WERNER   NOT AVBL
STEAMBOAT SPGS MOSUNNY   71  45  39 W8        30.18F
WALDEN         CLOUDY    64  41  42 E14       30.26F
$$

COZ006>008-011-300100-
...WEST CENTRAL VALLEYS...

CITY           SKY/WX    TMP DP  RH WIND       PRES   REMARKS
GRAND JUNCTION SUNNY     81  40  23 W7        30.06S
MONTROSE       SUNNY     80  42  25 N7        30.14S
EAGLE          PTSUNNY   70  45  40 W8        30.20S
RIFLE          MOSUNNY   76  45  33 SW6       30.10S
DELTA          SUNNY     85  37  18 W10       30.08S
NUCLA          SUNNY     79  37  22 CALM      30.17R
$$

COZ017>023-064>068-300100-
...SOUTHWEST COLORADO...

CITY           SKY/WX    TMP DP  RH WIND       PRES   REMARKS
DURANGO        SUNNY     79  36  21 W9        30.15S
CORTEZ         SUNNY     82  35  18 NW8       30.12S
PAGOSA SPRINGS CLOUDY    75  27  16 W6        30.23S
TELLURIDE      SUNNY     66  36  32 W10G17    30.34R
WOLF CREEK PAS MOSUNNY   46  30  53 SW14      30.53R
$$

COZ009-010-012-014-032>034-037-058>063-300100-
...CENTRAL COLORADO...

CITY           SKY/WX    TMP DP  RH WIND       PRES   REMARKS
ASPEN          PTSUNNY   71  41  33 NE10G21   30.25S
BUENA VISTA    LGT RAIN  64  35  34 N24G36    30.30R
COPPER MTN     PTSUNNY   46  34  61 SE6       30.57R
BERTHOUD PASS  FAIR      36  34  93 W15G21    30.57S
COTTONWOOD PAS LGT RAIN  57  34  41 NW12G21   30.42R
GUNNISON       MOSUNNY   66  39  37 W3        30.25S
KREMMLING      MOSUNNY   63  41  45 S14G22    30.26S
LEADVILLE      PTSUNNY   54  42  64 CALM      30.40S
MONARCH PASS   CLOUDY    46  32  57 E18G25    30.64S
SALIDA         CLOUDY    67  37  32 NW15G23   30.35R
SUNLIGHT       MOSUNNY   55  43  62 CALM      30.50S
WILKERSON PASS NOT AVBL
$$

COZ069>075-300100-
...SAN LUIS VALLEY/SANGRE DE CRISTO MOUNTAINS...

CITY           SKY/WX    TMP DP  RH WIND       PRES   REMARKS
ALAMOSA        SUNNY     73  32  22 SW8       30.21F
LA VETA PASS   NOT AVBL
SAGUACHE       NOT AVBL
$$

COZ035-036-038>040-300100-
...NORTHERN COLORADO FRONT RANGE...

CITY           SKY/WX    TMP DP  RH WIND       PRES   REMARKS
DENVER INTL AP CLOUDY    68  46  45 W10       30.12R
DMNS CITY PARK   N/A     67  45  44 SW8G16    30.12R
AURORA         PTSUNNY   69  43  39 SW10      30.13F
FRONT RANGE AP NOT AVBL
ERIE MUNI ARPT CLOUDY    68  46  45 SW6       30.11R
BOULDER MUN AP CLOUDY    68  43  40 W6        30.10R
CENTENNIAL     PTSUNNY   66  45  46 W9        30.15F
BROOMFIELD     PTSUNNY   66  48  52 S12       30.14
FORT COLLINS   CLOUDY    70  52  52 S6        30.10R
LONGMONT       CLOUDY    69  54  57 E3        30.11R
$$

COZ041-046-047-076>085-087-088-300100-
...PIKES PEAK/PALMER DIVIDE AND SOUTHERN FOOTHILLS...

CITY           SKY/WX    TMP DP  RH WIND       PRES   REMARKS
COLO. SPRINGS  CLOUDY    64  46  52 NE17      30.21R THUNDER
A. F. ACADEMY  CLOUDY    60  48  64 NW8       30.22S
ELLICOTT       TSTM      58  51  78 N21G31    30.20R
FALCON         TSTM      57  46  66 CALM      30.28S
FORT CARSON    LGT RAIN  62  50  64 NE18      30.19S
LIMON          PTSUNNY   72  44  36 NW18      30.11R
MONUMENT HILL  PTSUNNY   61  43  51 W7        30.26R
TRINIDAD       MOSUNNY   82  33  17 VRB3      30.10R
$$

COZ042>045-048>051-090-091-300100-
...NORTHEAST COLORADO...

CITY           SKY/WX    TMP DP  RH WIND       PRES   REMARKS
GREELEY ARPT   CLOUDY    57  50  77 E6        30.10S
AKRON          PTSUNNY   74  53  48 NW7       30.05R
BURLINGTON     SUNNY     81  46  29 N7        30.01R
WRAY             N/A     81  49  32 N6        29.98R
STERLING       PTSUNNY   79  61  53 CALM      30.00R
HOLYOKE        MOSUNNY   81  52  36 N8        29.98R
FORT MORGAN    PTSUNNY   72  52  49 W22G31    30.09R
$$

COZ086-089-092>099-300100-
...SOUTHEAST COLORADO...

CITY           SKY/WX    TMP DP  RH WIND       PRES   REMARKS
PUEBLO         PTSUNNY   85  36  17 NE7       30.02R
LA JUNTA       SUNNY     87  39  18 MISG      29.98F
LAMAR          SUNNY     87  43  21 E7        29.95S
SPRINGFIELD      N/A     84  41  21 N14       30.01R
$$



USA.gov is the U.S. government's official web portal to all federal, state and local government web resources and services.